Home   Weather   Yangon   Past weeks
Flag for Myanmar

Past Weather in Yangon, Myanmar — Yesterday and Last 2 Weeks

Now
77 °F

Passing clouds.


Feels Like: 78 °F
Forecast: 94 / 76 °F
Wind: 2 mph from North

Location: Rangoon Airport

Current Time: Oct 22, 2019 at 7:42:59 am

Latest Report: Oct 22, 2019 at 6:30 am


Visibility: 4 mi

Pressure: 29.83 "Hg

Humidity: 100%

Dew Point: 77 °F

Location of YangonLocation

Past Weather in Yangon — Graph

°F

Yangon Temperature Yesterday

Maximum temperature yesterday: 95 °F (at 1:30 pm)
Minimum temperature yesterday: 81 °F (at 5:30 am)
Average temperature yesterday: 86 °F

High & Low Weather Summary for the Past Weeks

 TemperatureHumidityPressure
High95 °F (Oct 15, 2:30 pm)100% (Oct 8, 4:00 am)29.95 "Hg (Oct 8, 4:00 am)
Low72 °F (Oct 16, 10:00 pm)47% (Oct 19, 1:30 pm)29.74 "Hg (Oct 9, 3:30 pm)
Average83 °F80%29.85 "Hg
* Reported Oct 7 6:30 am — Oct 22 6:30 am, Yangon. Weather by CustomWeather, © 2019

Note: Actual official high and low records may vary slightly from our data, if they occured in-between our weather recording intervals... More about our weather records

Advertising

Yangon Weather History for the Previous 24 Hours

Scroll right to see more
 ConditionsComfort  
Time TempWeatherWind HumidityBarometerVisibility
6:30 am
Tue, Oct 22
77 °FPassing clouds.2 mph100%29.83 "Hg4 mi
6:00 am77 °FClear.No wind100%29.83 "Hg4 mi
5:30 am79 °FClear.No wind94%29.83 "Hg4 mi
5:00 am79 °FClear.No wind94%29.80 "Hg4 mi
4:30 am79 °FClear.2 mph94%29.80 "Hg4 mi
4:00 am79 °FClear.2 mph94%29.80 "Hg4 mi
3:30 am79 °FClear.2 mph94%29.80 "Hg4 mi
3:00 am79 °FClear.2 mph94%29.80 "Hg4 mi
2:30 am79 °FClear.2 mph94%29.80 "Hg4 mi
2:00 am81 °FClear.3 mph84%29.80 "Hg4 mi
1:30 am81 °FClear.3 mph84%29.80 "Hg4 mi
1:00 am82 °FClear.3 mph84%29.83 "Hg4 mi
12:30 am84 °FClear.6 mph74%29.83 "Hg4 mi
12:00 am84 °FClear.6 mph74%29.83 "Hg4 mi
11:30 pm
Mon, Oct 21
84 °FClear.5 mph74%29.83 "Hg4 mi
11:00 pm84 °FClear.5 mph74%29.83 "Hg4 mi
10:30 pm84 °FClear.3 mph74%29.83 "Hg4 mi
10:00 pm84 °FClear.3 mph74%29.83 "Hg4 mi
9:30 pm84 °FClear.7 mph74%29.86 "Hg4 mi
9:00 pm84 °FClear.7 mph74%29.86 "Hg4 mi
8:30 pm84 °FClear.7 mph74%29.86 "Hg4 mi
8:00 pm84 °FClear.7 mph74%29.83 "Hg4 mi
7:30 pm86 °FClear.7 mph70%29.83 "Hg4 mi
7:00 pm86 °FPassing clouds.7 mph70%29.83 "Hg4 mi
6:30 pm86 °FClear.7 mph70%29.80 "Hg4 mi
6:00 pm86 °FPassing clouds.6 mph70%29.80 "Hg4 mi
5:30 pm88 °FPassing clouds.6 mph70%29.80 "Hg4 mi
5:00 pm90 °FPassing clouds.6 mph67%29.77 "Hg4 mi
4:30 pm95 °FPartly sunny.7 mph53%29.74 "Hg4 mi
4:00 pm95 °FPartly sunny.12 mph53%29.74 "Hg5 mi
3:30 pm95 °FPartly sunny.9 mph53%29.74 "Hg5 mi
3:00 pm95 °FPartly sunny.12 mph53%29.74 "Hg5 mi
2:30 pm95 °FPartly sunny.12 mph53%29.77 "Hg5 mi
2:00 pm95 °FPartly sunny.6 mph53%29.77 "Hg5 mi
1:30 pm95 °FPartly sunny.7 mph53%29.77 "Hg5 mi
1:00 pm93 °FPartly sunny.6 mph67%29.80 "Hg5 mi
12:30 pm91 °FPartly sunny.6 mph67%29.80 "Hg5 mi
12:00 pm91 °FPartly sunny.8 mph67%29.83 "Hg5 mi
11:00 am90 °FPartly sunny.6 mph71%29.86 "Hg5 mi
10:30 am88 °FScattered clouds.8 mph70%29.86 "Hg5 mi
10:00 am86 °FPassing clouds.8 mph75%29.89 "Hg5 mi
9:30 am86 °FPassing clouds.7 mph75%29.89 "Hg5 mi
8:30 am84 °FPassing clouds.6 mph74%29.89 "Hg4 mi
8:00 am84 °FPassing clouds.6 mph74%29.89 "Hg4 mi
Weather by CustomWeather, © 2019

See weather overview